Change the Weather History Date:

Thursday, November 10, 2011

  Actual Average (KWAL) Record (KWAL)
Temperature  
Mean Temperature 57 °F 52 °F  
Max Temperature 66 °F 61 °F 73 °F (1999)
Min Temperature 48 °F 43 °F 28 °F (1995)
Degree Days  
Heating Degree Days 8    
Month to date heating degree days  
Since 1 July heating degree days  
Cooling Degree Days 0    
Month to date cooling degree days  
Year to date cooling degree days  
Growing Degree Days 7 (Base 50)    
Moisture  
Dew Point 51 °F    
Average Humidity 86    
Maximum Humidity 100    
Minimum Humidity 58    
Precipitation  
Precipitation 0.00 in 0.09 in 0.15 in (2005)
Month to date precipitation 0.97  
Year to date precipitation 35.51  
Sea Level Pressure  
Sea Level Pressure 29.83 in    
Wind  
Wind Speed 5 mph (NNW)    
Max Wind Speed 20 mph    
Max Gust Speed 30 mph    
Visibility 7 miles    
Events Fog , Rain    
T = Trace of Precipitation, MM = Missing Value Source: NWS Daily Summary

Daily Weather History Graph

Daily Weather History Graph

Search for Another Location

Airport or City:

Trip Planner

Search our weather history database for the weather conditions in past years. The results will help you decide how hot, cold, wet, or windy it might be!

Date:

Astronomy

Nov. 10, 2011 Rise Set
Actual Time 6:37 AM EST 4:56 PM EST
Civil Twilight 6:09 AM EST 5:23 PM EST
Nautical Twilight 5:38 AM EST 5:55 PM EST
Astronomical Twilight 5:07 AM EST 6:25 PM EST
Moon 4:43 PM EST (11/10) 6:26 AM EST (11/10)
Length of Visible Light 11h 14m
Length of Day
10h 18m
Full, 100% of the Moon is Illuminated
Nov 10
Full
Nov 10
Full
Nov 18
Last Quarter
Nov 25
New
Dec 2
First Quarter

Hourly Weather History & Observations

Time (EST) Temp. Dew Point Humidity Pressure Visibility Wind Dir Wind Speed Gust Speed Precip Events Conditions
12:15 AM 51.8 °F 51.8 °F 100% 29.96 in 0.8 mi Calm Calm - N/A   Mostly Cloudy
12:35 AM 51.8 °F 51.8 °F 100% 29.96 in 0.8 mi Calm Calm - N/A   Overcast
12:55 AM 53.6 °F 51.8 °F 94% 29.96 in 0.2 mi Calm Calm - N/A Fog Fog
1:15 AM 53.6 °F 51.8 °F 94% 29.95 in 1.0 mi Calm Calm - N/A   Overcast
1:35 AM 53.6 °F 53.6 °F 100% 29.95 in 5.0 mi Calm Calm - N/A   Overcast
1:55 AM 55.4 °F 53.6 °F 94% 29.95 in 5.0 mi Calm Calm - N/A   Overcast
2:15 AM 55.4 °F 53.6 °F 94% 29.94 in 1.8 mi Calm Calm - N/A   Overcast
2:35 AM 55.4 °F 55.4 °F 100% 29.95 in 5.0 mi WNW 3.5 mph - N/A Rain Rain
3:15 AM 55.4 °F 53.6 °F 94% 29.93 in 1.2 mi Calm Calm - N/A   Mostly Cloudy
3:35 AM 55.4 °F 53.6 °F 94% 29.92 in 1.2 mi Calm Calm - N/A   Mostly Cloudy
4:15 AM 53.6 °F 53.6 °F 100% 29.88 in 0.2 mi ENE 4.6 mph - N/A Fog Fog
4:35 AM 53.6 °F 53.6 °F 100% 29.88 in 0.5 mi Calm Calm - N/A Fog Fog
4:55 AM 53.6 °F 53.6 °F 100% 29.89 in 0.2 mi Calm Calm - N/A Fog Fog
5:15 AM 53.6 °F 53.6 °F 100% 29.89 in 0.2 mi Calm Calm - N/A Fog Fog
5:55 AM 55.4 °F 53.6 °F 94% 29.89 in 1.0 mi Calm Calm - N/A   Overcast
6:15 AM 55.4 °F 55.4 °F 100% 29.89 in 1.5 mi NNW 3.5 mph - N/A Rain Light Rain
6:55 AM 55.4 °F 55.4 °F 100% 29.87 in 0.5 mi Calm Calm - N/A Fog Fog
7:15 AM 55.4 °F 55.4 °F 100% 29.87 in 0.5 mi NE 3.5 mph - N/A Fog Fog
7:35 AM 57.2 °F 55.4 °F 94% 29.87 in 1.0 mi Calm Calm - N/A   Mist
7:55 AM 57.2 °F 57.2 °F 100% 29.87 in 0.8 mi Calm Calm - N/A   Mist
8:15 AM 59.0 °F 57.2 °F 94% 29.88 in 1.2 mi Calm Calm - N/A   Mostly Cloudy
8:35 AM 60.8 °F 59.0 °F 94% 29.87 in 5.0 mi Calm Calm - N/A   Overcast
8:55 AM 60.8 °F 60.8 °F 100% 29.87 in 7.0 mi WNW 3.5 mph - N/A   Overcast
9:35 AM 64.4 °F 62.6 °F 94% 29.86 in 10.0 mi NW 3.5 mph - N/A   Mostly Cloudy
9:55 AM 66.2 °F 62.6 °F 88% 29.85 in 10.0 mi NW 5.8 mph - N/A   Mostly Cloudy
10:15 AM 66.2 °F 60.8 °F 83% 29.84 in 10.0 mi NW 6.9 mph - N/A   Scattered Clouds
10:35 AM 64.4 °F 60.8 °F 88% 29.84 in 10.0 mi NW 8.1 mph - N/A   Scattered Clouds
10:55 AM 64.4 °F 60.8 °F 88% 29.84 in 10.0 mi Calm Calm - N/A   Mostly Cloudy
11:15 AM 62.6 °F 59.0 °F 88% 29.84 in 10.0 mi NNW 6.9 mph - N/A   Overcast
11:35 AM 62.6 °F 59.0 °F 88% 29.83 in 4.0 mi NW 5.8 mph - N/A Rain Light Rain
11:55 AM 62.6 °F 59.0 °F 88% 29.82 in 7.0 mi NW 11.5 mph - N/A   Overcast
12:15 PM 62.6 °F 59.0 °F 88% 29.80 in 10.0 mi NW 6.9 mph - N/A   Mostly Cloudy
1:35 PM 60.8 °F 57.2 °F 88% 29.76 in 10.0 mi NW 11.5 mph 17.3 mph N/A   Mostly Cloudy
1:55 PM 60.8 °F 55.4 °F 82% 29.76 in 10.0 mi NNW 5.8 mph 18.4 mph N/A   Overcast
2:15 PM 60.8 °F 55.4 °F 82% 29.76 in 10.0 mi NNW 9.2 mph - N/A   Overcast
2:35 PM 60.8 °F 55.4 °F 82% 29.76 in 10.0 mi NNW 13.8 mph 18.4 mph N/A   Overcast
2:55 PM 59.0 °F 55.4 °F 88% 29.75 in 10.0 mi NNW 15.0 mph 23.0 mph N/A   Mostly Cloudy
3:15 PM 59.0 °F 53.6 °F 82% 29.75 in 7.0 mi NNW 16.1 mph 20.7 mph N/A   Scattered Clouds
3:35 PM 59.0 °F 53.6 °F 82% 29.75 in 7.0 mi NNW 9.2 mph 18.4 mph N/A   Scattered Clouds
4:15 PM 57.2 °F 51.8 °F 82% 29.76 in 10.0 mi NNW 11.5 mph 23.0 mph N/A   Scattered Clouds
4:35 PM 57.2 °F 50.0 °F 77% 29.76 in 10.0 mi North 12.7 mph 19.6 mph N/A   Mostly Cloudy
4:55 PM 55.4 °F 48.2 °F 77% 29.75 in 10.0 mi NNW 15.0 mph 21.9 mph N/A   Overcast
5:15 PM 55.4 °F 48.2 °F 77% 29.76 in 10.0 mi NNW 17.3 mph 24.2 mph N/A   Overcast
5:35 PM 53.6 °F 48.2 °F 82% 29.78 in 10.0 mi NNW 15.0 mph 20.7 mph N/A   Overcast
5:55 PM 53.6 °F 46.4 °F 77% 29.78 in 10.0 mi NW 15.0 mph 26.5 mph N/A   Overcast
6:15 PM 53.6 °F 46.4 °F 77% 29.77 in 10.0 mi NNW 19.6 mph 29.9 mph N/A   Overcast
6:35 PM 51.8 °F 44.6 °F 76% 29.78 in 10.0 mi NNW 16.1 mph 24.2 mph N/A   Overcast
6:55 PM 51.8 °F 44.6 °F 76% 29.79 in 10.0 mi NNW 13.8 mph 28.8 mph N/A   Overcast
7:15 PM 51.8 °F 42.8 °F 71% 29.80 in 10.0 mi NNW 17.3 mph 28.8 mph N/A   Overcast
7:35 PM 51.8 °F 42.8 °F 71% 29.78 in 10.0 mi NNW 13.8 mph 28.8 mph N/A   Overcast
7:55 PM 50.0 °F 44.6 °F 82% 29.78 in 10.0 mi NNW 17.3 mph 25.3 mph N/A Rain Light Rain
8:15 PM 48.2 °F 44.6 °F 87% 29.78 in 7.0 mi NNW 13.8 mph 23.0 mph N/A Rain Rain
8:35 PM 48.2 °F 44.6 °F 87% 29.78 in 10.0 mi NNW 10.4 mph 20.7 mph N/A Rain Light Rain
8:55 PM 48.2 °F 42.8 °F 82% 29.79 in 10.0 mi NNW 13.8 mph 20.7 mph N/A Rain Light Rain
9:15 PM 48.2 °F 42.8 °F 82% 29.78 in 10.0 mi NNW 13.8 mph 26.5 mph N/A Rain Light Rain
9:35 PM 48.2 °F 42.8 °F 82% 29.78 in 10.0 mi NNW 11.5 mph 27.6 mph N/A Rain Light Rain
9:55 PM 48.2 °F 42.8 °F 82% 29.76 in 10.0 mi NNW 15.0 mph 26.5 mph N/A   Overcast
10:15 PM 50.0 °F 39.2 °F 66% 29.76 in 10.0 mi NNW 19.6 mph 29.9 mph N/A   Overcast
10:35 PM 50.0 °F 39.2 °F 66% 29.77 in 10.0 mi NNW 19.6 mph 28.8 mph N/A   Overcast
10:55 PM 50.0 °F 37.4 °F 62% 29.77 in 10.0 mi NNW 17.3 mph 26.5 mph N/A   Scattered Clouds
11:15 PM 50.0 °F 37.4 °F 62% 29.77 in 10.0 mi NW 11.5 mph 29.9 mph N/A   Mostly Cloudy
11:35 PM 50.0 °F 37.4 °F 62% 29.77 in 10.0 mi NW 18.4 mph 27.6 mph N/A   Mostly Cloudy
11:55 PM 50.0 °F 35.6 °F 58% 29.77 in 10.0 mi NW 12.7 mph 27.6 mph N/A   Mostly Cloudy